Morristown, NJ

8:02 AM EDT on August 22, 2017 (GMT -0400)
Morristown Municipal

Weather History for KMMU - March, 2014

Change the Weather History Date:

Wednesday, March 5, 2014

  Actual Average Record
Temperature  
Mean Temperature 28 °F -  
Max Temperature 35 °F 44 °F 73 °F (1974)
Min Temperature 21 °F 26 °F 4 °F (1948)
Degree Days  
Heating Degree Days 37    
Moisture  
Dew Point 13 °F    
Average Humidity 58    
Maximum Humidity 80    
Minimum Humidity 28    
Precipitation  
Precipitation 0.00 in - - ()
Sea Level Pressure  
Sea Level Pressure 30.28 in    
Wind  
Wind Speed 2 mph (NE)    
Max Wind Speed 12 mph    
Max Gust Speed 18 mph    
Visibility 10 miles    
Events      
Averages and records for this station are not official NWS values.
T = Trace of Precipitation, MM = Missing Value Source: NWS Daily Summary

Daily Weather History Graph

Daily Weather History Graph

Search for Another Location

Airport or City:

Trip Planner

Search our weather history database for the weather conditions in past years. The results will help you decide how hot, cold, wet, or windy it might be!

Date:

Astronomy

Mar. 05, 2014 Rise Set
Actual Time 6:25 AM EST 5:53 PM EST
Civil Twilight 5:58 AM EST 6:20 PM EST
Nautical Twilight 5:26 AM EST 6:52 PM EST
Astronomical Twilight 4:54 AM EST 7:24 PM EST
Moon 8:47 AM EST (3/5) 11:01 PM EST (3/5)
Length of Visible Light 12h 22m
Length of Day
11h 27m
Waxing Crescent, 23% of the Moon is Illuminated
Mar 5
Waxing Crescent
Mar 8
First Quarter
Mar 16
Full
Mar 23
Last Quarter
Mar 30
New

Hourly Weather History & Observations

Time (EST) Temp. Windchill Dew Point Humidity Pressure Visibility Wind Dir Wind Speed Gust Speed Precip Events Conditions
12:15 AM 24.8 °F - 14.0 °F 64% 30.25 in 10.0 mi Calm Calm - N/A   Overcast
12:35 AM 26.6 °F - 15.8 °F 64% 30.24 in 10.0 mi Calm Calm - N/A   Overcast
12:55 AM 26.6 °F - 14.0 °F 59% 30.24 in 10.0 mi Calm Calm - N/A   Overcast
1:15 AM 24.8 °F - 14.0 °F 64% 30.24 in 10.0 mi Calm Calm - N/A   Mostly Cloudy
1:35 AM 24.8 °F - 15.8 °F 69% 30.24 in 10.0 mi Calm Calm - N/A   Scattered Clouds
1:55 AM 23.0 °F - 15.8 °F 74% 30.24 in 10.0 mi Calm Calm - N/A   Mostly Cloudy
2:15 AM 23.0 °F - 15.8 °F 74% 30.23 in 10.0 mi Calm Calm - N/A   Overcast
2:35 AM 23.0 °F - 15.8 °F 74% 30.22 in 10.0 mi Calm Calm - N/A   Overcast
2:55 AM 23.0 °F - 12.2 °F 63% 30.22 in 10.0 mi Calm Calm - N/A   Overcast
3:15 AM 21.2 °F - 15.8 °F 80% 30.21 in 10.0 mi Calm Calm - N/A   Overcast
3:35 AM 21.2 °F - 15.8 °F 80% 30.21 in 10.0 mi Calm Calm - N/A   Overcast
3:55 AM 23.0 °F - 14.0 °F 68% 30.21 in 10.0 mi Calm Calm - N/A   Overcast
4:15 AM 23.0 °F - 14.0 °F 68% 30.22 in 10.0 mi Calm Calm - N/A   Overcast
4:40 AM 23.0 °F - 15.8 °F 74% 30.23 in 10.0 mi Calm Calm - N/A   Overcast
4:55 AM 23.0 °F - 15.8 °F 74% 30.22 in 10.0 mi Calm Calm - N/A   Overcast
5:15 AM 23.0 °F - 15.8 °F 74% 30.22 in 10.0 mi Calm Calm - N/A   Overcast
5:35 AM 23.0 °F - 15.8 °F 74% 30.23 in 10.0 mi Calm Calm - N/A   Overcast
6:45 AM 21.2 °F - 15.8 °F 80% 30.24 in 10.0 mi Calm Calm - N/A   Overcast
7:45 AM 24.8 °F - 15.8 °F 69% 30.25 in 10.0 mi Calm Calm - N/A   Overcast
8:45 AM 26.6 °F - 12.2 °F 55% 30.26 in 10.0 mi Calm Calm - N/A   Overcast
9:45 AM 30.2 °F - 6.8 °F 37% 30.25 in 10.0 mi Calm Calm - N/A   Overcast
10:45 AM 32.0 °F - 5.0 °F 32% 30.25 in 10.0 mi Calm Calm - N/A   Overcast
11:45 AM 33.8 °F 30.8 °F 6.8 °F 32% 30.25 in 10.0 mi East 3.5 mph - N/A   Mostly Cloudy
12:45 PM 35.6 °F 32.8 °F 6.8 °F 30% 30.23 in 10.0 mi East 3.5 mph - N/A   Mostly Cloudy
1:45 PM 35.6 °F 29.9 °F 6.8 °F 30% 30.22 in 10.0 mi NE 6.9 mph - N/A   Mostly Cloudy
2:45 PM 33.8 °F 29.6 °F 6.8 °F 32% 30.25 in 10.0 mi ENE 4.6 mph - N/A   Overcast
3:45 PM 35.6 °F 28.6 °F 5.0 °F 28% 30.25 in 10.0 mi NNE 9.2 mph - N/A   Overcast
4:45 PM 33.8 °F 27.7 °F 8.6 °F 35% 30.27 in 10.0 mi East 6.9 mph - N/A   Mostly Cloudy
5:45 PM 32.0 °F 26.4 °F 12.2 °F 44% 30.29 in 10.0 mi NE 5.8 mph - N/A   Scattered Clouds
7:45 PM 28.4 °F 18.5 °F 12.2 °F 51% 30.27 in 10.0 mi NE 11.5 mph 18.4 mph N/A   Scattered Clouds
8:45 PM 28.4 °F 19.7 °F 14.0 °F 55% 30.41 in 10.0 mi NNE 9.2 mph - N/A   Scattered Clouds
9:45 PM 28.4 °F 19.7 °F 15.8 °F 59% 30.43 in 10.0 mi NE 9.2 mph 18.4 mph N/A   Overcast
9:55 PM 30.2 °F 20.8 °F 15.8 °F 55% 30.43 in 10.0 mi NNE 11.5 mph - N/A   Overcast
10:15 PM 30.2 °F 23.4 °F 15.8 °F 55% 30.43 in 10.0 mi North 6.9 mph - N/A   Overcast
10:35 PM 30.2 °F 21.9 °F 15.8 °F 55% 30.43 in 10.0 mi NNE 9.2 mph - N/A   Overcast
10:55 PM 30.2 °F 21.9 °F 14.0 °F 51% 30.43 in 10.0 mi North 9.2 mph - N/A   Overcast
11:15 PM 30.2 °F 21.9 °F 14.0 °F 51% 30.44 in 10.0 mi NE 9.2 mph 16.1 mph N/A   Overcast
11:35 PM 28.4 °F 18.5 °F 14.0 °F 55% 30.44 in 10.0 mi NNE 11.5 mph 17.3 mph N/A   Overcast
11:55 PM 28.4 °F 19.1 °F 14.0 °F 55% 30.44 in 10.0 mi NNE 10.4 mph 18.4 mph N/A   Overcast